Location: *
(58.7167°N, 26.1833°E)
Time: 01:48:07
(UTC+00:00)

Meteor 2-16 Rocket - Pass Details

Date: 25 August 2019
Orbit: 941 x 957 km, 82.6° (Epoch: 19 September)

Event Time Altitude Azimuth Distance (km) Brightness Sun altitude
Rises 18:41:23 0° 346° (NNW) 3,646 8.4 -8.2°
Reaches altitude 10° 18:43:54 10° 346° (NNW) 2,694 7.6 -8.4°
Maximum altitude 18:50:05 89° 74° (ENE) 959 4.5 -9.1°
Drops below altitude 10° 18:56:12 10° 168° (SSE) 2,666 6.3 -9.7°
Enters shadow 18:57:37 - 169° (S) 3,201 6.7 -9.8°
